Weather History for Sparta, IL

Change the Weather History Date:

Sunday, September 29, 2013

  Actual Average (KBLV) Record (KBLV)
Temperature  
Mean Temperature 66 °F -  
Max Temperature 75 °F 78 °F 101 °F (1953)
Min Temperature 57 °F 50 °F 35 °F (1992)
Cooling Degree Days 1    
Growing Degree Days 16 (Base 50)    
Moisture  
Dew Point 57 °F    
Average Humidity 75    
Maximum Humidity 94    
Minimum Humidity 38    
Precipitation  
Precipitation 0.53 in - - ()
Sea Level Pressure  
Sea Level Pressure 30.02 in    
Wind  
Wind Speed 5 mph (NNW)    
Max Wind Speed 12 mph    
Max Gust Speed -    
Visibility 9 miles    
Events Fog , Rain    
Averages and records for this station are not official NWS values.
T = Trace of Precipitation, MM = Missing Value Source: NWS Daily Summary

Daily Weather History Graph

Daily Weather History Graph

Search for Another Location

Airport:

Trip Planner

Search our weather history database for the weather conditions in past years. The results will help you decide how hot, cold, wet, or windy it might be!

Date:

Astronomy

Sep. 29, 2013 Rise Set
Actual Time 6:52 AM CDT 6:44 PM CDT
Civil Twilight 6:26 AM CDT 7:10 PM CDT
Nautical Twilight 5:56 AM CDT 7:41 PM CDT
Astronomical Twilight 5:25 AM CDT 8:12 PM CDT
Moon 1:38 AM CDT (9/29) 3:36 PM CDT (9/29)
Length of Visible Light 12h 44m
Length of Day
11h 51m
Waning Crescent, 27% of the Moon is Illuminated
Sep 29
Waning Crescent
Oct 4
New
Oct 11
First Quarter
Oct 18
Full
Oct 26
Last Quarter

Hourly Weather History & Observations

Time (CDT) Temp. Dew Point Humidity Pressure Visibility Wind Dir Wind Speed Gust Speed Precip Events Conditions
12:15 AM 73.4 °F 57.2 °F 57% 30.01 in 10.0 mi SSW 9.2 mph - N/A   Mostly Cloudy
12:35 AM 73.4 °F 57.2 °F 57% 30.01 in 10.0 mi SSW 5.8 mph - N/A   Mostly Cloudy
12:55 AM 73.4 °F 59.0 °F 61% 30.01 in 10.0 mi SSW 5.8 mph - N/A   Overcast
1:15 AM 73.4 °F 59.0 °F 61% 30.02 in 10.0 mi SW 6.9 mph - N/A   Overcast
1:35 AM 68.0 °F 62.6 °F 83% 30.03 in 5.0 mi WSW 6.9 mph - 0.10 in Rain Heavy Rain
1:55 AM 66.2 °F 62.6 °F 88% 30.03 in 5.0 mi SSW 8.1 mph - 0.17 in Rain Heavy Rain
2:15 AM 66.2 °F 62.6 °F 88% 30.03 in 10.0 mi SSW 8.1 mph - 0.08 in Rain Rain
2:35 AM 66.2 °F 62.6 °F 88% 30.01 in 10.0 mi South 9.2 mph - 0.10 in Rain Light Rain
2:55 AM 66.2 °F 62.6 °F 88% 30.00 in 10.0 mi South 8.1 mph - 0.11 in Rain Light Rain
3:15 AM 66.2 °F 62.6 °F 88% 30.00 in 10.0 mi SSW 5.8 mph - N/A   Overcast
3:35 AM 66.2 °F 62.6 °F 88% 30.00 in 7.0 mi SSW 4.6 mph - N/A   Drizzle
3:55 AM 66.2 °F 62.6 °F 88% 30.00 in 5.0 mi WSW 4.6 mph - 0.05 in Rain Heavy Rain
4:15 AM 66.2 °F 62.6 °F 88% 30.01 in 5.0 mi West 11.5 mph - 0.09 in Rain Rain
4:35 AM 64.4 °F 60.8 °F 88% 30.02 in 10.0 mi NNW 5.8 mph - 0.12 in   Heavy Drizzle
4:55 AM 62.6 °F 60.8 °F 94% 30.02 in 10.0 mi NNW 8.1 mph - 0.15 in   Heavy Drizzle
5:15 AM 62.6 °F 59.0 °F 88% 30.03 in 10.0 mi North 5.8 mph - 0.01 in   Drizzle
5:35 AM 62.6 °F 57.2 °F 82% 30.03 in 7.0 mi NNW 8.1 mph - 0.02 in Rain Rain
5:55 AM 60.8 °F 57.2 °F 88% 30.04 in 10.0 mi NNW 6.9 mph - 0.04 in   Drizzle
6:15 AM 60.8 °F 57.2 °F 88% 30.05 in 10.0 mi NW 6.9 mph - N/A   Drizzle
6:35 AM 60.8 °F 55.4 °F 82% 30.05 in 10.0 mi NNW 3.5 mph - 0.01 in Rain Light Rain
6:55 AM 60.8 °F 55.4 °F 82% 30.05 in 10.0 mi NNW 4.6 mph - 0.01 in   Overcast
7:15 AM 59.0 °F 55.4 °F 88% 30.05 in 10.0 mi NNW 4.6 mph - N/A   Overcast
7:35 AM 59.0 °F 55.4 °F 88% 30.05 in 10.0 mi NNW 3.5 mph - N/A   Overcast
8:15 AM 60.8 °F 55.4 °F 82% 30.05 in 7.0 mi NNW 4.6 mph - N/A   Overcast
8:35 AM 60.8 °F 55.4 °F 82% 30.05 in 10.0 mi NNW 5.8 mph - N/A   Overcast
8:55 AM 60.8 °F 57.2 °F 88% 30.05 in 10.0 mi NNW 5.8 mph - N/A   Overcast
9:15 AM 60.8 °F 57.2 °F 88% 30.06 in 10.0 mi North 4.6 mph - N/A   Overcast
9:35 AM 60.8 °F 57.2 °F 88% 30.07 in 10.0 mi North 5.8 mph - N/A   Overcast
9:55 AM 60.8 °F 55.4 °F 82% 30.07 in 10.0 mi North 4.6 mph - N/A   Overcast
10:15 AM 60.8 °F 55.4 °F 82% 30.07 in 10.0 mi North 5.8 mph - N/A   Overcast
10:35 AM 62.6 °F 55.4 °F 77% 30.07 in 10.0 mi North 5.8 mph - N/A   Overcast
10:55 AM 62.6 °F 57.2 °F 82% 30.07 in 10.0 mi North 4.6 mph - N/A   Overcast
11:15 AM 62.6 °F 57.2 °F 82% 30.07 in 10.0 mi North 4.6 mph - N/A   Overcast
11:35 AM 64.4 °F 57.2 °F 77% 30.07 in 10.0 mi NNW 4.6 mph - N/A   Overcast
11:55 AM 64.4 °F 57.2 °F 77% 30.07 in 10.0 mi North 4.6 mph - N/A   Overcast
12:15 PM 66.2 °F 59.0 °F 78% 30.06 in 10.0 mi Calm Calm - N/A   Overcast
12:35 PM 66.2 °F 59.0 °F 78% 30.05 in 10.0 mi North 4.6 mph - N/A   Overcast
12:55 PM 68.0 °F 59.0 °F 73% 30.04 in 10.0 mi NNW 4.6 mph - N/A   Overcast
1:15 PM 69.8 °F 57.2 °F 64% 30.03 in 10.0 mi Calm Calm - N/A   Mostly Cloudy
1:35 PM 69.8 °F 59.0 °F 68% 30.02 in 10.0 mi North 3.5 mph - N/A   Mostly Cloudy
1:55 PM 71.6 °F 57.2 °F 60% 30.01 in 10.0 mi North 4.6 mph - N/A   Scattered Clouds
2:15 PM 73.4 °F 57.2 °F 57% 30.00 in 10.0 mi NE 4.6 mph - N/A   Clear
2:35 PM 73.4 °F 57.2 °F 57% 30.00 in 10.0 mi NNE 8.1 mph - N/A   Clear
2:55 PM 73.4 °F 55.4 °F 53% 29.99 in 10.0 mi NNE 5.8 mph - N/A   Clear
3:15 PM 75.2 °F 51.8 °F 44% 29.99 in 10.0 mi NNE 5.8 mph - N/A   Clear
3:35 PM 75.2 °F 51.8 °F 44% 29.99 in 10.0 mi NNE 4.6 mph - N/A   Clear
3:55 PM 75.2 °F 51.8 °F 44% 29.98 in 10.0 mi Calm Calm - N/A   Clear
4:15 PM 75.2 °F 51.8 °F 44% 29.98 in 10.0 mi Calm Calm - N/A   Clear
4:35 PM 75.2 °F 51.8 °F 44% 29.98 in 10.0 mi Calm Calm - N/A   Clear
4:55 PM 75.2 °F 48.2 °F 38% 29.98 in 10.0 mi NNE 3.5 mph - N/A   Clear
5:15 PM 75.2 °F 48.2 °F 38% 29.98 in 5.0 mi East 4.6 mph - N/A   Haze
5:35 PM 75.2 °F 50.0 °F 41% 29.98 in 10.0 mi Calm Calm - N/A   Clear
5:55 PM 73.4 °F 50.0 °F 44% 29.98 in 10.0 mi NE 3.5 mph - N/A   Clear
6:15 PM 71.6 °F 51.8 °F 50% 29.98 in 10.0 mi Calm Calm - N/A   Clear
6:35 PM 69.8 °F 53.6 °F 56% 29.98 in 10.0 mi ENE 3.5 mph - N/A   Clear
6:55 PM 64.4 °F 55.4 °F 73% 29.98 in 10.0 mi SE 4.6 mph - N/A   Clear
7:15 PM 66.2 °F 59.0 °F 78% 29.99 in 5.0 mi Calm Calm - N/A   Haze
7:35 PM 64.4 °F 59.0 °F 83% 29.99 in 10.0 mi SE 3.5 mph - N/A   Clear
7:55 PM 64.4 °F 59.0 °F 83% 30.00 in 10.0 mi Calm Calm - N/A   Clear
8:15 PM 64.4 °F 59.0 °F 83% 30.00 in 10.0 mi Calm Calm - N/A   Clear
8:35 PM 62.6 °F 59.0 °F 88% 30.00 in 10.0 mi Calm Calm - N/A   Clear
8:55 PM 62.6 °F 57.2 °F 82% 30.00 in 10.0 mi Calm Calm - N/A   Clear
9:15 PM 62.6 °F 57.2 °F 82% 30.00 in 10.0 mi Calm Calm - N/A   Clear
9:35 PM 62.6 °F 57.2 °F 82% 30.00 in 10.0 mi Calm Calm - N/A   Clear
9:55 PM 60.8 °F 57.2 °F 88% 30.00 in 10.0 mi Calm Calm - N/A   Clear
10:15 PM 60.8 °F 55.4 °F 82% 30.00 in 7.0 mi Calm Calm - N/A   Clear
10:35 PM 60.8 °F 55.4 °F 82% 30.00 in 10.0 mi Calm Calm - N/A   Clear
10:55 PM 59.0 °F 55.4 °F 88% 30.00 in 3.0 mi Calm Calm - N/A   Scattered Clouds
11:15 PM 57.2 °F 53.6 °F 88% 29.99 in 0.5 mi Calm Calm - N/A Fog Fog
11:35 PM 57.2 °F 53.6 °F 88% 29.99 in 0.8 mi Calm Calm - N/A   Mostly Cloudy
11:55 PM 57.2 °F 53.6 °F 88% 29.99 in 0.2 mi Calm Calm - N/A Fog Fog